Temp
28 23 22 24 26 28 29 28 29 30 29 28 28 27 24 22 22 23 25 26 26 26 25 24 24 22 21 20 20 20 19 19 18 18 17 18 17 18 19 18 19 19 20 20
25 23 26 28 29 29 28 28 29 29 31 28 28 27 23 22 21 23 21 25 25 25 25 24 24 22 21 21 20 20 19 19 18 18 18 18 18 18 19 18 19 19 20 20
24 26 30 29 29 29 27 27 30 28 29 31 28 25 27 23 21 23 24 23 25 25 26 24 24 23 22 21 21 21 20 19 18 18 17 17 18 19 19 19 19 19 20 20
26 29 30 29 29 29 27 29 31 30 28 25 29 23 25 23 23 22 24 25 25 26 25 25 24 24 22 22 22 21 20 20 18 18 18 18 18 18 18 19 19 20 19 20
26 28 28 28 29 29 27 30 30 29 27 27 26 24 24 22 23 23 24 25 26 26 25 25 25 24 23 23 22 21 21 20 19 18 18 18 18 18 19 19 19 19 19 19
27 31 29 29 30 30 30 29 28 27 25 22 25 26 22 21 23 24 25 26 27 26 26 25 25 25 23 23 22 22 21 21 20 19 18 18 18 19 19 19 19 19 19 19
27 28 29 31 28 31 29 26 21 21 22 23 25 25 25 27 26 26 26 27 28 27 26 26 25 25 24 22 22 22 21 21 20 19 18 18 19 19 19 19 20 19 19 19
25 25 29 30 28 27 26 25 21 23 23 25 27 24 26 29 30 29 28 28 29 26 26 25 25 25 24 22 23 22 22 22 21 20 19 19 19 19 19 19 19 20 20 20
25 26 31 31 30 28 26 25 26 25 25 24 25 27 30 31 29 29 31 31 30 29 28 27 26 25 25 23 23 23 22 22 22 21 20 19 20 19 19 20 20 20 20 20
27 25 28 31 32 30 27 28 25 22 24 23 24 26 25 29 30 30 29 31 31 30 28 27 27 26 24 24 24 23 23 23 23 22 21 20 20 20 20 20 19 20 20 20
28 26 27 30 29 27 27 26 26 24 23 23 23 24 25 27 28 29 32 32 32 31 30 28 27 26 25 24 24 23 23 23 23 22 21 21 21 21 20 20 20 20 20 20
29 27 26 27 29 31 29 27 25 22 23 22 22 23 30 28 28 30 32 32 31 31 31 28 28 27 25 24 23 24 23 23 23 23 21 21 21 21 21 20 20 20 20 20
27 24 23 24 26 29 28 27 26 25 23 23 22 23 28 30 27 29 29 30 31 31 30 30 27 26 25 24 24 24 24 24 23 22 22 21 20 21 21 21 21 20 20 20
27 25 23 22 24 26 26 27 27 25 24 23 23 24 25 25 26 28 30 29 30 30 30 29 28 27 26 25 24 23 24 23 23 22 21 21 20 21 21 21 21 20 20 20
23 22 24 25 26 27 27 27 28 24 25 25 26 26 26 26 26 28 30 30 28 26 28 29 28 27 26 25 24 24 23 23 23 22 22 21 20 21 21 21 20 20 19 20
22 20 21 22 24 25 26 27 27 28 25 25 26 26 27 26 27 25 29 28 27 25 27 28 27 26 26 25 25 24 23 23 23 22 22 21 21 21 21 21 21 20 19 19
20 20 19 19 22 22 22 25 25 25 26 26 25 24 25 24 24 24 24 28 27 28 28 27 27 26 26 25 25 24 23 23 22 22 22 21 21 21 21 20 20 20 19 19
20 18 19 19 20 19 22 25 26 24 25 25 24 22 21 24 25 25 23 24 25 26 23 25 25 24 25 25 25 24 24 23 23 22 22 21 21 21 21 20 20 20 20 19
22 19 19 18 19 21 23 24 24 23 22 24 23 22 24 25 25 21 20 23 24 25 26 26 25 24 23 24 24 24 23 23 22 22 21 21 21 21 20 20 20 19 19 19
22 22 20 19 18 19 21 24 25 23 21 22 22 20 22 23 19 18 20 23 24 26 28 27 26 26 23 24 23 23 22 22 22 21 21 21 20 20 20 19 19 19 18 18
18 18 19 19 18 19 21 21 23 21 17 20 21 19 19 18 18 21 21 21 23 25 26 27 26 25 23 23 23 22 22 22 22 21 20 20 19 19 19 18 17 17 17 17
17 17 16 16 16 18 18 20 19 18 19 17 17 17 16 18 20 19 21 22 21 21 21 22 23 23 23 22 23 22 22 22 21 20 20 19 19 20 19 17 17 17 16 16
16 17 17 18 16 18 19 19 20 19 18 18 17 16 16 17 18 18 19 19 19 19 22 23 23 26 25 20 21 22 22 21 20 19 19 20 17 18 17 17 16 16 17 17
16 18 15 15 16 15 17 15 16 18 17 17 17 18 17 17 17 18 20 18 18 18 19 20 21 21 18 18 21 22 22 22 19 19 18 17 18 18 18 17 16 16 16 16
15 15 15 15 13 14 15 14 14 15 16 17 17 17 17 17 18 17 17 19 19 17 17 18 18 17 16 17 22 21 21 19 19 19 18 17 18 18 18 17 16 15 16 16
16 14 13 12 14 13 13 13 13 14 15 15 15 16 17 16 17 18 18 18 19 20 15 16 17 19 18 17 21 20 20 19 20 18 17 17 17 17 17 16 16 15 15 15
Height
1507 1516 1523 1509 1500 1495 1493 1495 1496 1486 1488 1491 1492 1492 1497 1500 1504 1510 1509 1512 1514 1516 1517 1520 1521 1523 1527 1530 1533 1535 1537 1541 1545 1548 1551 1556 1557 1561 1565 1568 1571 1574 1578 1580
1510 1517 1502 1495 1490 1489 1490 1493 1494 1487 1480 1485 1487 1490 1490 1495 1504 1503 1507 1504 1511 1514 1515 1517 1520 1520 1523 1526 1529 1533 1534 1538 1541 1545 1549 1553 1557 1561 1565 1569 1571 1573 1576 1579
1510 1500 1490 1491 1490 1492 1493 1496 1489 1494 1481 1477 1484 1495 1487 1499 1500 1492 1491 1503 1500 1509 1510 1511 1514 1517 1520 1524 1526 1530 1531 1534 1539 1542 1547 1552 1556 1559 1562 1566 1569 1571 1574 1577
1497 1487 1486 1485 1487 1485 1501 1480 1478 1481 1489 1512 1482 1522 1492 1494 1494 1487 1494 1493 1494 1500 1505 1506 1509 1513 1516 1520 1523 1527 1529 1532 1536 1539 1543 1548 1551 1554 1558 1563 1567 1570 1572 1575
1496 1487 1485 1487 1482 1479 1489 1476 1479 1479 1489 1492 1492 1511 1496 1489 1489 1482 1481 1474 1486 1488 1494 1497 1502 1507 1509 1515 1519 1523 1527 1530 1533 1537 1542 1546 1550 1554 1558 1561 1564 1567 1570 1571
1484 1477 1476 1474 1471 1472 1472 1477 1480 1484 1493 1524 1495 1497 1507 1495 1475 1472 1470 1470 1476 1479 1485 1492 1498 1504 1505 1512 1515 1520 1523 1528 1531 1535 1540 1544 1548 1551 1555 1558 1560 1564 1567 1569
1483 1478 1469 1469 1477 1470 1476 1491 1529 1532 1529 1526 1490 1497 1478 1455 1455 1455 1458 1461 1466 1469 1477 1484 1491 1497 1501 1504 1510 1516 1521 1525 1529 1533 1537 1541 1546 1550 1553 1556 1558 1562 1563 1565
1502 1499 1465 1457 1470 1480 1481 1490 1525 1535 1527 1506 1476 1502 1466 1437 1440 1442 1450 1451 1457 1462 1469 1476 1482 1489 1495 1499 1503 1510 1517 1522 1526 1531 1535 1539 1544 1549 1552 1555 1557 1560 1561 1563
1495 1487 1454 1450 1453 1464 1477 1491 1474 1496 1490 1507 1490 1467 1444 1437 1442 1443 1443 1447 1451 1457 1463 1468 1475 1482 1490 1494 1498 1504 1512 1518 1522 1527 1532 1537 1541 1545 1549 1553 1556 1558 1559 1560
1470 1491 1458 1451 1452 1454 1464 1462 1494 1496 1518 1524 1496 1480 1477 1451 1447 1441 1443 1445 1448 1452 1458 1463 1469 1477 1484 1487 1493 1501 1507 1512 1518 1523 1527 1532 1536 1541 1546 1550 1553 1555 1557 1557
1455 1468 1469 1454 1460 1467 1467 1474 1472 1479 1492 1513 1515 1494 1453 1448 1442 1443 1441 1444 1446 1450 1454 1458 1465 1472 1477 1483 1489 1496 1503 1508 1514 1519 1523 1527 1531 1536 1541 1545 1549 1551 1553 1554
1452 1460 1476 1466 1446 1443 1447 1458 1465 1498 1497 1489 1495 1493 1442 1438 1440 1436 1439 1442 1447 1451 1454 1456 1461 1467 1474 1477 1484 1490 1497 1503 1509 1514 1519 1523 1527 1531 1535 1539 1542 1546 1548 1549
1458 1472 1492 1479 1459 1444 1454 1459 1461 1463 1473 1486 1499 1488 1444 1433 1438 1439 1442 1443 1446 1451 1456 1459 1461 1464 1468 1472 1478 1484 1491 1497 1503 1510 1515 1519 1523 1526 1529 1533 1536 1539 1542 1544
1456 1463 1478 1495 1479 1462 1467 1460 1461 1468 1484 1484 1481 1473 1462 1452 1444 1440 1442 1445 1447 1448 1453 1458 1461 1462 1466 1469 1474 1480 1486 1492 1498 1504 1509 1513 1517 1521 1524 1528 1532 1535 1537 1540
1469 1477 1466 1462 1458 1455 1455 1459 1456 1471 1464 1475 1461 1460 1457 1451 1448 1444 1440 1441 1446 1453 1453 1454 1459 1462 1464 1469 1473 1477 1482 1487 1493 1500 1503 1508 1512 1518 1522 1525 1527 1530 1533 1535
1471 1482 1473 1474 1461 1459 1455 1450 1450 1447 1454 1457 1452 1451 1447 1451 1452 1456 1441 1436 1441 1455 1460 1457 1457 1462 1465 1468 1472 1475 1478 1484 1489 1495 1498 1503 1507 1513 1517 1521 1523 1527 1529 1531
1479 1479 1484 1485 1470 1469 1470 1455 1452 1451 1448 1448 1450 1445 1437 1440 1446 1442 1457 1432 1431 1438 1443 1455 1457 1459 1465 1468 1470 1472 1476 1482 1486 1490 1495 1499 1503 1507 1511 1515 1520 1522 1524 1527
1472 1478 1481 1484 1479 1496 1457 1445 1446 1453 1447 1447 1444 1441 1441 1440 1443 1446 1456 1444 1435 1438 1447 1446 1455 1464 1465 1466 1469 1472 1474 1478 1481 1486 1490 1495 1499 1502 1507 1510 1513 1517 1519 1521
1457 1467 1478 1487 1485 1467 1451 1450 1451 1454 1453 1445 1445 1443 1443 1449 1443 1459 1457 1435 1433 1436 1438 1443 1453 1462 1470 1466 1465 1467 1472 1476 1479 1480 1484 1488 1493 1497 1501 1504 1507 1510 1513 1515
1453 1453 1464 1475 1482 1485 1460 1446 1442 1438 1455 1449 1446 1448 1444 1441 1454 1451 1446 1440 1442 1438 1437 1437 1444 1458 1463 1465 1464 1465 1468 1472 1475 1477 1479 1482 1485 1491 1495 1498 1501 1505 1508 1510
1471 1465 1468 1468 1473 1464 1453 1448 1444 1459 1471 1451 1449 1447 1445 1448 1452 1446 1447 1441 1442 1443 1439 1436 1435 1440 1454 1464 1465 1464 1466 1469 1472 1474 1475 1477 1479 1483 1488 1492 1495 1499 1502 1505
1481 1480 1479 1480 1482 1473 1458 1457 1464 1459 1455 1454 1452 1451 1447 1446 1446 1444 1440 1443 1444 1441 1437 1439 1439 1441 1446 1455 1464 1465 1464 1467 1473 1475 1472 1472 1474 1477 1482 1487 1491 1494 1498 1500
1482 1477 1478 1472 1477 1462 1462 1459 1454 1453 1453 1452 1452 1453 1451 1448 1444 1445 1443 1444 1443 1445 1440 1432 1429 1431 1439 1453 1462 1460 1463 1465 1469 1476 1476 1471 1471 1475 1480 1485 1490 1493 1495 1498
1473 1469 1474 1470 1462 1462 1461 1457 1455 1456 1454 1451 1449 1450 1450 1448 1443 1442 1442 1445 1447 1446 1440 1436 1428 1434 1440 1447 1458 1458 1460 1463 1470 1475 1479 1476 1471 1473 1478 1483 1488 1491 1493 1497
1479 1475 1469 1464 1462 1458 1455 1459 1458 1455 1452 1450 1449 1448 1445 1448 1444 1440 1438 1435 1440 1436 1430 1433 1427 1429 1435 1442 1446 1451 1456 1463 1468 1475 1477 1476 1472 1472 1475 1480 1486 1491 1493 1496
1473 1471 1472 1470 1465 1463 1460 1456 1455 1454 1452 1450 1446 1440 1440 1442 1445 1440 1438 1439 1437 1431 1417 1433 1426 1431 1433 1439 1437 1441 1455 1464 1468 1470 1471 1474 1471 1471 1474 1478 1483 1489 1491 1494
Wind_Speed
16 4 6 14 12 16 14 10 4 3 11 8 6 4 16 22 17 13 27 23 21 22 27 28 23 29 27 25 21 17 17 16 18 19 26 27 27 23 21 18 15 15 20 18
7 8 13 16 16 15 11 8 4 7 6 8 6 9 20 19 9 4 12 30 30 26 30 32 29 30 31 27 22 19 18 19 18 18 24 26 27 24 21 19 16 13 13 15
10 12 16 18 17 8 10 7 4 9 9 2 4 7 4 15 15 26 31 31 35 34 33 35 35 34 32 30 25 20 19 20 19 19 22 24 19 20 20 20 15 12 11 11
9 17 15 17 8 7 6 11 9 8 5 3 2 8 4 15 14 17 21 31 34 36 37 38 38 35 37 34 28 20 19 18 17 22 23 28 26 24 21 17 16 14 13 10
11 10 9 13 6 9 8 8 7 7 6 5 9 2 2 4 9 11 21 28 39 43 39 43 40 37 42 36 32 24 21 20 23 22 23 27 26 22 20 15 15 15 13 6
15 25 11 8 7 4 6 6 7 7 2 2 11 5 1 6 11 10 19 29 39 42 45 41 41 38 37 37 36 29 23 23 25 26 24 23 24 22 19 18 16 13 13 15
16 18 19 13 7 2 6 4 4 5 3 6 6 10 10 19 14 16 20 33 31 46 43 43 46 44 34 43 40 33 26 26 27 28 28 27 25 24 20 17 16 16 17 16
9 15 10 17 11 10 9 8 5 7 3 3 8 8 7 17 20 28 33 39 36 40 46 48 48 47 38 43 42 36 29 26 27 31 31 28 23 28 24 22 18 18 17 18
6 14 14 11 8 11 9 6 11 5 5 4 5 7 7 3 8 11 22 22 34 37 43 47 45 45 43 43 46 39 31 26 26 27 33 31 25 30 27 24 20 18 23 19
10 8 12 13 8 9 9 7 4 4 3 7 7 6 4 7 2 7 7 18 22 37 41 42 46 43 47 48 47 40 32 24 24 25 29 31 29 26 29 26 21 23 20 24
9 8 10 7 4 9 3 5 5 4 4 3 3 6 6 8 8 6 4 12 24 24 27 46 48 46 41 45 47 41 33 26 22 26 27 27 27 26 27 29 28 24 25 24
5 2 5 12 11 12 8 9 10 5 7 5 5 7 3 8 5 11 7 12 20 20 19 37 43 44 47 47 47 42 35 29 25 24 27 26 25 25 26 27 29 31 28 24
5 4 4 10 7 6 6 13 8 12 3 6 3 6 8 5 9 18 11 16 18 16 16 19 38 47 52 48 48 44 37 32 26 26 28 27 26 26 25 24 25 24 25 26
7 3 5 5 9 10 8 7 5 12 9 5 5 6 12 10 5 3 3 11 16 18 16 16 30 42 49 48 47 44 38 33 28 29 28 29 29 27 22 23 24 22 21 22
13 5 6 10 12 19 17 15 12 7 6 13 22 17 5 7 7 10 4 3 12 14 10 18 22 37 42 46 44 43 39 35 31 31 29 31 30 25 25 23 25 26 23 24
11 7 10 10 11 17 19 14 14 17 9 17 16 14 3 9 9 31 18 19 17 0 20 12 21 35 39 40 39 40 41 37 33 31 29 29 27 23 23 20 19 22 25 25
7 4 6 6 9 17 13 5 9 13 19 7 12 5 12 12 17 24 14 24 25 21 22 19 22 34 38 40 39 36 37 36 34 32 30 28 27 26 24 22 24 26 27 25
12 5 3 8 5 12 6 8 15 14 16 3 9 6 10 21 22 14 34 29 27 34 21 17 20 26 34 36 37 37 36 34 33 31 29 29 26 29 27 27 28 27 26 26
12 7 5 7 8 13 18 12 14 13 12 8 9 4 8 5 4 14 4 10 41 34 30 20 9 20 29 32 34 35 36 36 37 35 33 29 29 29 28 25 24 22 22 22
6 4 8 3 6 13 9 11 20 2 15 13 9 9 14 16 4 3 4 11 19 27 28 33 30 26 29 35 33 34 32 34 36 37 35 32 29 26 24 22 19 19 20 20
7 7 3 5 6 5 6 16 25 3 5 16 13 11 15 5 15 6 3 3 11 24 35 35 37 29 26 34 32 35 35 35 33 30 28 27 28 29 28 26 19 19 18 17
5 5 4 8 8 2 23 16 3 5 15 19 21 20 18 18 18 17 18 17 11 18 27 25 17 15 20 25 37 39 38 35 30 29 27 25 23 22 19 17 16 15 14 13
3 5 5 2 4 5 3 7 10 4 5 11 14 14 15 15 18 17 15 26 10 8 21 18 16 36 33 22 42 42 37 33 31 27 24 21 21 19 17 17 16 15 13 12
9 15 5 7 10 15 18 28 29 21 15 11 12 15 13 13 14 13 13 13 20 15 16 24 18 27 25 32 43 37 33 31 30 26 21 20 20 17 15 14 13 14 13 13
10 14 10 9 10 20 18 24 27 28 24 18 18 20 15 11 12 14 15 21 23 25 23 27 29 30 50 27 37 33 31 29 28 25 22 21 18 16 18 16 15 14 12 12
11 6 3 4 14 8 17 25 28 25 22 21 20 22 22 17 12 15 16 14 21 25 21 30 34 30 31 33 33 30 29 29 27 26 25 21 16 16 16 15 15 15 13 13
Wind_Direction
231 208 238 245 247 253 269 215 219 15 189 191 211 227 169 184 202 230 204 217 206 201 188 182 181 178 176 172 181 188 190 201 206 201 204 191 191 193 192 183 184 193 205 198
258 243 235 255 266 278 302 303 344 294 221 173 206 243 177 177 156 193 288 205 212 209 189 185 183 177 176 180 192 200 197 207 213 211 203 196 193 193 192 188 197 186 196 198
223 246 241 243 259 261 288 279 219 245 282 252 334 291 148 162 167 181 204 235 205 211 196 185 185 184 188 192 206 205 203 206 210 203 198 192 191 195 195 198 203 193 204 206
238 240 247 264 245 231 273 292 307 290 232 246 189 278 211 153 192 195 204 211 212 202 208 200 191 192 197 202 207 205 200 194 194 185 183 186 188 190 194 194 211 215 223 227
254 266 266 264 256 282 246 254 298 310 311 356 286 292 252 97 207 211 198 210 216 200 197 194 197 193 199 202 204 204 197 188 182 177 186 189 194 199 205 203 206 219 209 219
270 283 277 257 245 258 287 324 290 319 322 316 268 270 183 206 208 221 215 219 210 194 199 200 197 197 199 204 205 201 197 191 189 184 187 199 198 201 207 213 211 210 216 223
268 260 257 245 273 280 293 296 320 321 321 230 40 312 213 210 206 202 204 221 208 198 192 199 197 197 196 199 202 201 197 192 194 191 191 200 206 200 208 219 219 211 224 220
283 301 253 211 199 195 236 183 174 238 264 216 227 239 256 199 208 200 201 213 204 186 191 193 190 197 200 200 203 201 199 196 196 196 197 203 203 200 204 208 210 220 229 230
234 277 302 156 191 169 252 263 226 241 290 323 251 285 0 98 175 194 182 180 182 187 182 189 194 199 197 202 203 202 202 200 202 202 202 207 205 202 204 206 211 214 222 220
227 248 276 290 222 199 166 223 346 319 253 270 288 291 208 103 84 65 124 157 167 186 188 189 191 190 195 203 204 204 204 208 204 207 205 209 212 208 209 209 204 208 213 230
210 211 266 273 245 203 232 232 243 180 170 212 321 293 210 202 215 169 77 183 174 175 179 191 190 190 191 197 198 200 202 206 204 212 207 207 210 212 211 213 212 216 221 230
350 227 261 231 248 260 233 223 182 160 273 221 182 265 223 87 210 162 150 129 170 173 181 186 194 193 190 192 193 199 203 207 210 213 213 211 212 212 211 214 219 227 232 232
355 334 339 334 327 282 306 20 11 331 303 235 181 266 290 144 89 91 74 137 149 167 177 182 183 188 188 191 194 199 203 211 209 214 219 214 218 217 217 219 219 228 232 235
327 209 221 241 265 294 309 349 257 218 267 283 243 288 337 328 4 128 94 37 171 161 181 189 193 188 189 190 192 196 203 210 209 214 217 218 223 225 227 231 228 230 235 239
354 319 281 280 285 291 290 289 281 190 208 283 283 285 252 218 312 294 232 142 147 15 197 188 200 192 187 190 194 198 203 207 211 212 221 219 225 231 229 234 231 235 241 249
328 320 330 320 328 326 280 278 291 295 216 224 256 285 193 46 284 286 200 152 135 245 278 207 204 192 189 192 195 200 203 209 212 215 226 226 231 229 224 225 222 226 235 240
284 303 333 284 323 325 300 302 308 321 325 268 243 246 354 347 335 312 317 189 163 177 214 216 215 200 198 198 204 203 204 207 210 218 224 225 230 231 230 234 232 230 234 237
263 265 235 284 313 267 266 310 295 286 284 311 51 29 330 332 269 264 299 216 206 189 191 179 186 208 212 206 208 213 214 215 219 217 215 222 222 225 229 232 241 241 240 241
232 225 246 244 254 279 278 287 290 307 312 19 6 182 211 315 334 153 298 153 177 165 164 158 182 220 220 216 211 212 214 217 216 215 215 213 219 228 230 233 243 243 245 246
323 260 218 245 256 262 300 319 330 50 294 342 9 25 19 56 45 275 44 99 157 171 187 182 191 222 218 219 212 211 213 212 216 217 220 225 226 225 227 226 232 235 235 239
343 319 268 247 225 247 343 1 336 192 317 354 25 29 34 35 343 322 277 270 213 200 188 193 191 195 211 218 216 208 211 218 222 217 214 214 217 221 225 225 218 220 224 226
319 311 27 360 323 324 13 350 1 298 3 20 27 13 353 350 344 348 333 329 281 252 217 202 222 208 198 208 216 212 212 218 220 218 209 212 204 207 205 199 203 200 196 195
287 344 304 336 242 269 26 235 291 18 22 19 358 356 358 7 2 4 347 348 338 282 225 250 239 235 241 246 221 210 212 213 210 212 211 193 174 179 176 175 172 173 177 181
319 342 319 344 11 348 44 15 14 6 349 351 352 328 340 358 338 322 327 15 337 271 246 245 285 253 252 238 216 212 204 205 205 203 196 178 170 167 170 168 170 176 181 181
297 317 302 306 17 348 336 352 344 345 344 332 318 316 305 329 324 325 310 315 310 309 225 215 175 224 259 226 207 201 202 198 198 192 180 180 172 169 172 171 178 191 196 200
280 277 322 281 318 290 297 313 312 315 319 330 322 312 307 289 297 291 299 320 303 303 178 183 185 184 217 211 191 191 196 199 194 185 181 185 176 173 175 183 200 197 205 212